AO-07 1 07530U 74089B 25248.59614920 -.00000014 00000-0 20180-3 0 9990 2 07530 101.9976 253.8073 0012015 315.7523 162.7217 12.53691377324855 UO-11 1 14781U 84021B 25248.47020359 .00002453 00000-0 26227-3 0 9993 2 14781 97.7631 213.1520 0009087 53.6482 306.5573 14.89636270214723 AO-27 1 22825U 93061C 25248.60950440 .00000211 00000-0 97764-4 0 9998 2 22825 98.7291 310.5721 0007872 208.3898 151.6857 14.30825612666304 FO-29 1 24278U 96046B 25248.58848759 .00000020 00000-0 53316-4 0 9997 2 24278 98.5607 130.8498 0350795 114.4841 249.3303 13.53253041434670 NOAA-15 1 25338U 98030A 25248.59810749 .00000276 00000-0 13076-3 0 9990 2 25338 98.5328 271.5993 0011457 100.6252 259.6220 14.27012608420708 GO-32 1 25397U 98043D 25248.50205061 .00000170 00000-0 93772-4 0 9990 2 25397 98.9797 229.4928 0001022 9.2782 350.8415 14.24336104410803 ISS 1 25544U 98067A 25248.52014851 .00010393 00000-0 18902-3 0 9996 2 25544 51.6330 268.9059 0004231 303.8442 56.2144 15.50121174527624 NO-44 1 26931U 01043C 25248.45391525 .00000293 00000-0 14056-3 0 9997 2 26931 67.0490 260.6329 0006998 275.6501 84.3802 14.31773099249683 SO-50 1 27607U 02058C 25248.49499140 .00002058 00000-0 26875-3 0 9994 2 27607 64.5534 289.1128 0065469 315.4624 44.1230 14.81853057222256 CO-55 1 27844U 03031E 25248.50881984 .00000600 00000-0 28011-3 0 9997 2 27844 98.6789 255.6590 0008517 295.9011 64.1289 14.24060160151151 CO-57 1 27848U 03031J 25248.56884546 .00000505 00000-0 24198-3 0 9990 2 27848 98.6815 255.6567 0008649 315.1183 44.9295 14.23385942150889 RS-22 1 27939U 03042A 25248.60925431 .00002069 00000-0 33342-3 0 9995 2 27939 98.3356 60.2389 0012595 91.0125 357.6952 14.72559850173659 CO-58 1 28895U 05043F 25248.39381637 .00002873 00000-0 47271-3 0 9999 2 28895 98.2614 33.9141 0014980 32.9916 327.2222 14.71304837 59852 CO-65 1 32785U 08021C 25248.51200632 .00007605 00000-0 53560-3 0 9996 2 32785 97.7939 220.4136 0007186 275.7490 84.2917 15.05298878942307 CO-66 1 32791U 08021J 25248.41221221 .00017864 00000-0 81202-3 0 9991 2 32791 97.7346 230.5669 0003105 176.4297 183.6960 15.20808339943835 RS-30 1 32953U 08025A 25248.60692718 .00000008 00000-0 -12380-4 0 9994 2 32953 82.5071 172.4460 0018195 211.2475 148.7524 12.43167911784338 NOAA-19 1 33591U 09005A 25248.55120704 .00000223 00000-0 14261-3 0 9994 2 33591 98.9902 313.7208 0014780 114.1077 246.1643 14.13403979854278 SRMSAT 1 37841U 11058D 25248.60955102 .00000531 00000-0 14476-3 0 9991 2 37841 19.9734 341.8358 0011711 314.0932 87.4760 14.11461186717564 ZACUBE-1 1 39417U 13066B 25248.61675073 .00007139 00000-0 60614-3 0 9996 2 39417 97.7858 205.2389 0045250 117.0992 243.4857 14.97403069638085 Delfi-N3xt 1 39428U 13066N 25248.33494844 .00011199 00000-0 11057-2 0 9999 2 39428 97.8293 165.0370 0085138 71.7878 289.2583 14.89404179632130 GOMX-1 1 39430U 13066Q 25248.56259015 .00002838 00000-0 44401-3 0 9996 2 39430 97.6739 101.8063 0130274 270.8503 87.7779 14.67960928628130 LO-74 1 39440U 13066AA 25248.57072193 .00005073 00000-0 50701-3 0 9992 2 39440 97.8532 192.5761 0059618 249.0912 110.3918 14.90597907634549 AO-73 1 39444U 13066AE 25248.43589391 .00011224 00000-0 81134-3 0 9993 2 39444 97.7903 210.7801 0043274 90.2245 270.3939 15.03457956636780 DTUSAT-2 1 40030U 14033W 25247.90115020 .00010734 00000-0 67485-3 0 9994 2 40030 98.0623 224.0458 0010815 120.0730 240.1572 15.09382169609561 EO-80 1 40032U 14033Y 25248.51353790 .00009831 00000-0 61691-3 0 9991 2 40032 98.0512 224.2219 0010394 70.4244 289.8105 15.09483658609632 LILACSAT-2 1 40908U 15049K 25248.59904782 .00015786 00000-0 38540-3 0 9995 2 40908 97.5035 271.1742 0008571 190.4810 169.6259 15.40903924551770 IO-86 1 40931U 15052B 25151.18580175 .00001241 00000-0 78118-4 0 9996 2 40931 6.0006 24.0987 0012733 338.8432 21.1169 14.78805930523159 Horyu-4 1 41340U 16012D 25248.37750439 .00035847 00000-0 84005-3 0 9998 2 41340 30.9951 259.9571 0006718 247.8961 112.0972 15.40832960526326 Lapan A3 1 41603U 16040E 25248.65509486 .00005282 00000-0 18164-3 0 9999 2 41603 97.1408 249.8536 0009450 323.4348 36.6247 15.30451060511254 CAS-2T 1 41847U 16066G 25248.49918420 .00001360 00000-0 20338-3 0 9990 2 41847 98.4142 322.1818 0344175 272.4878 83.6960 14.43692610463709 CAS-4B 1 42759U 17034B 25248.65466461 .00196080 00000-0 99851-3 0 9990 2 42759 43.0017 151.8605 0022623 200.2449 159.7526 15.79705178456444 CAS-4A 1 42761U 17034D 25248.64857287 .00232689 00000-0 10212-2 0 9991 2 42761 43.0052 147.6417 0023290 206.0925 153.8775 15.82772021456473 TechnoSat 1 42829U 17042E 25248.51813906 .00004771 00000-0 36459-3 0 9992 2 42829 97.4006 53.0799 0017147 352.4935 7.6031 15.02285537443924 AO-91 1 43017U 17073E 25248.59870607 .00010411 00000-0 52035-3 0 9991 2 43017 97.5102 117.1634 0167520 226.0942 132.6355 15.06127790422450 S-Net D 1 43186U 18014G 25248.37413574 .00006836 00000-0 39447-3 0 9994 2 43186 97.5520 150.3822 0006959 286.8003 73.2465 15.12650598415648 S-Net B 1 43187U 18014H 25248.24838852 .00006937 00000-0 40046-3 0 9990 2 43187 97.5526 150.2340 0007582 281.2950 78.7428 15.12628601415629 S-Net A 1 43188U 18014J 25248.37420857 .00006738 00000-0 38876-3 0 9994 2 43188 97.5533 150.5202 0007501 281.4616 78.5772 15.12656033415642 S-Net C 1 43189U 18014K 25248.31715219 .00007002 00000-0 40407-3 0 9996 2 43189 97.5552 150.4930 0008945 272.4151 87.6056 15.12626157414186 Ten-Koh 1 43677U 18084G 25248.47291995 .00003621 00000-0 28891-3 0 9998 2 43677 98.0818 64.2127 0006115 339.2482 20.8492 15.00968610373429 PO-101 1 43678U 18084H 25248.59741839 .00003524 00000-0 29803-3 0 9995 2 43678 98.1103 68.1294 0008778 8.2645 351.8719 14.98723025373566 QO-100 1 43700U 18090A 25248.52668762 .00000142 00000-0 00000-0 0 9992 2 43700 0.0110 198.0740 0001176 335.2097 27.0332 1.00269469 24821 MinXSS-2 1 43758U 18099A 25248.14540648 .00026825 00000-0 96852-3 0 9993 2 43758 97.4947 314.5800 0011089 200.8248 159.2541 15.28408600370330 AO-95 1 43770U 18099N 25248.12711921 .00013719 00000-0 66240-3 0 9995 2 43770 97.4839 305.2902 0008854 265.1930 94.8293 15.18745692369837 SNUSat 2 1 43782U 18099AA 25248.57379796 .00010693 00000-0 56163-3 0 9998 2 43782 97.4522 301.7502 0011454 202.0948 157.9792 15.15828109369821 SnugLite 1 43784U 18099AC 25248.59910195 .00012902 00000-0 61720-3 0 9996 2 43784 97.4338 301.5301 0003369 180.9594 179.1635 15.19107947369994 ITASat 1 1 43786U 18099AE 25248.54888002 .00009028 00000-0 49990-3 0 9994 2 43786 97.4494 300.9683 0012431 260.1476 99.8353 15.13987936369763 EAGLET 1 1 43790U 18099AJ 25248.58971353 .00005363 00000-0 33577-3 0 9997 2 43790 97.4691 300.6568 0010504 243.1846 116.8309 15.09754600369347 ESEO 1 43792U 18099AL 25248.56212597 .00002149 00000-0 16426-3 0 9998 2 43792 97.4384 292.6973 0011132 218.6440 141.3990 15.02909526369030 JO-97 1 43803U 18099AX 25248.10907290 .00018876 00000-0 80979-3 0 9990 2 43803 97.4592 306.4722 0007307 187.5027 172.6102 15.22749614370085 Suomi 100 1 43804U 18099AY 25248.60150745 .00012887 00000-0 60014-3 0 9995 2 43804 97.4654 305.9882 0011849 194.1082 165.9824 15.19985514370068 ISAT 1 43879U 18111D 25248.50974582 .00031067 00000-0 96259-3 0 9995 2 43879 97.5878 165.0074 0005705 230.5183 129.5555 15.33370627367150 UWE-4 1 43880U 18111E 25248.28337033 .00022712 00000-0 81935-3 0 9998 2 43880 97.5825 162.5928 0008686 257.5861 102.4406 15.28493629367019 Sparrow 1 43881U 18111F 25247.76342860 .00035696 00000-0 10565-2 0 9990 2 43881 97.6042 167.4791 0003304 296.0366 64.0536 15.34804316367141 Prox-1 1 44339U 19036A 25248.56184260 .00014531 00000-0 17677-2 0 9999 2 44339 23.9952 203.1668 0006519 355.3262 4.7174 14.81709483331070 Taurus 1 1 44530U 19059C 25248.61902947 .00010209 00000-0 18325-2 0 9992 2 44530 98.6156 32.2933 0009839 122.1828 238.0330 14.66887793316848 Duchifat 3 1 44854U 19089C 25248.08684384 .00103636 00000-0 14607-2 0 9993 2 44854 36.9385 155.6985 0008587 287.3865 72.5955 15.55330946316607 TO-108 1 44881U 19093C 25248.65460976 .00001654 00000-0 19622-3 0 9990 2 44881 97.7866 322.4453 0012559 305.9639 54.0411 14.85770109309155 FloripaSat 1 1 44885U 19093G 25248.60195713 .00009162 00000-0 75252-3 0 9996 2 44885 97.8171 336.4202 0007620 271.8689 88.1661 14.99390867309930 RS-44 1 44909U 19096E 25248.35147289 .00000013 00000-0 -85187-7 0 9992 2 44909 82.5254 168.9765 0218530 90.3111 272.3032 12.79743137265916 UPMSat 2 1 46276U 20061E 25248.14679837 .00233993 00000-0 93039-3 0 9996 2 46276 97.2342 326.3186 0002935 226.7182 133.3845 15.86069450279256 SALSAT 1 46495U 20068K 25248.50834711 .00010468 00000-0 43516-3 0 9995 2 46495 97.8683 230.7091 0010139 207.0834 152.9874 15.23953587271915 TUBIN 1 48900U 21059X 25248.61998105 .00074889 00000-0 64342-3 0 9996 2 48900 97.6770 65.5445 0002718 257.5978 102.4979 15.69120562233804 LEDSAT 1 49069U 21073D 25248.22683771 .00219098 00000-0 12976-2 0 9994 2 49069 97.3801 334.2601 0004596 134.2322 225.9323 15.77445571225166 CUTE 1 49263U 21088D 25248.16154834 .00031257 00000-0 53743-3 0 9999 2 49263 97.4446 327.1688 0005002 269.8987 90.1692 15.51056118217988 TeikyoSat 4 1 49396U 21102B 25248.54938923 .00002593 00000-0 17228-3 0 9993 2 49396 97.4046 283.7917 0012310 183.3711 176.7437 15.07991457209803 Z-Sat 1 49399U 21102E 25248.54529649 .00005887 00000-0 31646-3 0 9996 2 49399 97.3739 287.4433 0018673 154.3363 205.8801 15.15104971210297 KOSEN 1 1 49402U 21102H 25248.57577866 .00009652 00000-0 43121-3 0 9993 2 49402 97.3639 291.5727 0016951 127.8214 232.4559 15.21415956210662 HO-113 1 50466U 21131B 25248.60654987 .00000999 00000-0 32504-3 0 9999 2 50466 98.5086 337.5261 0003431 219.2515 140.8425 14.40910896194125 SNUGLITE 2 1 52899U 22065F 25248.63107461 .00002155 00000-0 42571-3 0 9992 2 52899 98.1807 29.8150 0007362 188.3623 171.7458 14.63416670169368 UmKA 1 (RS40S) 1 57172U 23091G 25248.60440524 .00007953 00000-0 41269-3 0 9992 2 57172 97.5508 303.5411 0014763 35.9999 324.2225 15.16311133120817 CubeBel-2 (EU11S) 1 57175U 23091K 25248.58623209 .00013478 00000-0 61116-3 0 9997 2 57175 97.5505 305.2391 0012352 42.1262 318.0921 15.20889067120925 ENSO 1 58470U 23185J 25248.60053602 .00126202 00000-0 11309-2 0 9995 2 58470 97.3648 327.1557 0004856 131.5953 228.5725 15.67910954 98761 EIRSAT-1 1 58472U 23185L 25247.61785164 .16327471 25584-5 21378-3 0 9997 2 58472 97.3302 330.8194 0010438 267.2211 92.7899 16.48977480 98923 SONATE-2 1 59112U 24043Q 25248.31828251 .00027236 00000-0 71274-3 0 9996 2 59112 97.5231 21.4755 0010687 157.4132 202.7585 15.38646400 83812 MO-122 1 60209U 24125G 25248.56747237 .00026142 00000-0 66994-3 0 9995 2 60209 97.2695 99.3336 0017598 175.2858 184.8557 15.39191665 65472 GRBBeta 1 60237U 24128C 25248.09118424 .00007159 00000-0 52118-3 0 9997 2 60237 61.9914 134.2815 0056522 76.4694 284.2686 15.03367679 63350 Curium One 1 60242U 24128H 25248.03663121 .00012403 00000-0 82095-3 0 9991 2 60242 61.9812 131.3760 0056483 73.2207 287.5073 15.06388248 63401 ROBUSTA-3A 1 60243U 24128J 25248.39986493 .00012255 00000-0 82365-3 0 9996 2 60243 61.9883 131.2362 0055761 70.7664 289.9450 15.05867044 63448 CatSat 1 60246U 24125J 25248.32082275 .00029037 00000-0 89110-3 0 9995 2 60246 97.2511 97.2647 0041418 139.6383 220.7946 15.32839520 63413 HYPERVIEW-1G (RS66S) 1 61772U 24199AP 25248.62654503 .00032404 00000-0 83405-3 0 9996 2 61772 97.3394 117.4434 0010905 229.2333 130.7967 15.39116189 90481 AO-123 1 61781U 24199AY 25248.61015319 .00009983 00000-0 35062-3 0 9993 2 61781 97.3416 115.2438 0013751 242.3046 117.6800 15.29502151 90336 ZIMSAT 2 1 61783U 24199BA 25248.62901994 .00062820 00000-0 12096-2 0 9999 2 61783 97.3351 118.8984 0010013 218.1319 141.9224 15.47620694 93733 HADES-R (SO-124) 1 62690U 25009CK 25247.87606413 .00072037 00000-0 20588-2 0 9998 2 62690 97.4037 328.6711 0003272 154.4111 205.7295 15.35717783 35515 HYDRA-T 1 62692U 25009CM 25248.49401985 .00069017 00000-0 19408-2 0 9999 2 62692 97.4038 329.3709 0002965 147.0332 213.1097 15.36239882 35618 JINJUSat 1B 1 63210U 25052A 25248.32946023 .00017859 00000-0 77150-3 0 9999 2 63210 97.4290 141.3876 0005044 41.6635 318.4985 15.22537870 26593 NUSHSAT 1 1 63211U 25052B 25248.43724141 .00020132 00000-0 85737-3 0 9995 2 63211 97.4282 141.5260 0005275 46.1008 314.0664 15.22995543 26618 TEVEL2-4 1 63213U 25052D 25247.68163641 .00019243 00000-0 83010-3 0 9998 2 63213 97.4188 140.5155 0005060 63.3095 296.8659 15.22569934 26494 TEVEL2-5 1 63214U 25052E 25248.40666235 .00018638 00000-0 80437-3 0 9994 2 63214 97.4196 141.2273 0004965 61.8634 298.3104 15.22560613 26608 TEVEL2-6 1 63215U 25052F 25248.60827154 .00017959 00000-0 77604-3 0 9993 2 63215 97.4197 141.4187 0005040 61.6007 298.5737 15.22526506 26633 TEVEL2-1 1 63217U 25052H 25248.23826246 .00017857 00000-0 77754-3 0 9998 2 63217 97.4172 140.9405 0005509 70.2364 289.9466 15.22264359 26578 TEVEL2-3 1 63218U 25052J 25248.43557733 .00018487 00000-0 80448-3 0 9997 2 63218 97.4175 141.1371 0005596 70.7410 289.4431 15.22278347 26603 TEVEL2-2 1 63219U 25052K 25248.23895177 .00017718 00000-0 77161-3 0 9997 2 63219 97.4175 140.9407 0005552 71.0979 289.0858 15.22260440 26577 TEVEL2-9 1 63237U 25052AD 25248.37575766 .00017671 00000-0 79838-3 0 9992 2 63237 97.4239 140.9047 0009960 74.5061 285.7274 15.20972872 26577 TEVEL2-7 1 63238U 25052AE 25248.25059301 .00017403 00000-0 78839-3 0 9995 2 63238 97.4239 140.7706 0009990 74.6836 285.5503 15.20882855 26554 TEVEL2-8 1 63239U 25052AF 25248.25440651 .00017543 00000-0 79544-3 0 9997 2 63239 97.4236 140.7635 0009968 74.8859 285.3478 15.20852270 26552 HYDRA-W 1 63490U 25052BL 25248.39023072 .00044407 00000-0 16186-2 0 9996 2 63490 97.4181 141.8316 0013243 71.1093 289.1581 15.27957086 26644 HADES-ICM (SO-125) 1 63492U 25052BN 25248.24053961 .00043003 00000-0 16039-2 0 9990 2 63492 97.4180 141.5870 0013627 74.6707 285.6037 15.27202548 26613